STARLINK-35748, 66206

Orbit data source: Space-Track

STARLINK-35748, 66206 is a payload satellite owned by SpaceX/Seattle (US) in LEO that was launched on Tue, 28 Oct 2025 UTC via an FALCON 9 launch vehicle from the Air Force Western Test Range (AFWTR). Payload-class satellites include a variety of spacecraft equipped with specific instruments for various scientific and technological missions. These include communications satellites like Starlink; space stations such as the ISS; scientific satellites like the Hubble; Earth observation satellites from companies like Planet Labs, Umbra, and HawkEye 360; GPS; miniature CubeSats for education and research; and military/defense satellites.

Loading next visibility...
Identifier
66206, 2025-244A
Orbit
LEO
Country
Flag of USUS
Related business
Manufacturer
SpaceX/Seattle
Mission
Operational Commercial Communications
Bus & Motor
STARLINK V2MO, Unknown motor
Mass
575 kg wet, ~530 kg dry
Launch date (UTC)
2025-10-28 (8 months ago)
Launch vehicle
FALCON 9
Launch site
Air Force Western Test Range (AFWTR)
Object type
Payload
Rocket body
Debris
Shape & HBR
Box + 2 Pan, 17.7 m
Radar Cross Section
36.964 m², Large (>1 m²)

Expand to show TLE details & history
Last TLE update: 15 hours ago

TLE from 15 hours ago
0 STARLINK-35748
1 66206U 25244A   26171.23964058  .00019646  00000-0  59081-3 0  9993
2 66206  53.1586 112.6415 0001156  95.2284 264.8850 15.34412948 37377
Epoch: 2026-06-20T05:45Z
TLE epoch observation values (Epoch: 2026-06-20T05:45:04.946Z)
Latitude
-0.00004°
Longitude
117.91375°
Altitude
463.637 km
Speed
7.636 km/s
True Right ascension
07h 30m 33s
True Declination
0° 00' 00"
Sunlit
Object was in daylight at epoch
Visualization orbit readout
Latitude
Unknown
Longitude
Unknown
Altitude
Unknown
Speed
Unknown
Apparent Right ascension
Unknown
Apparent Declination
Unknown
Sunlit
N/A
Visualization observer readout
Local Sidereal Time
07:17:57
Azimuth
Unknown
Elevation
Unknown
Doppler factor
Unknown
Orbital elements
Apogee altitude
463.713 km
Perigee altitude
462.131 km
Semi-major axis
6,841.059 km
Eccentricity
0.00012
Inclination
53.1586°
RAAN
112.6415°
Arg. of periapsis
95.2284°
True anomaly
264.87181°
Mean anomaly
264.885°
Eccentric anomaly
264.8784°
Mean motion
3.83582 °/min
Orbital period
93.85 mins
BSTAR
0.00059081
Loading maneuver chart data...
Computing Atmospheric mass density...
Loading historical data...
Loading historical data...
Loading historical data...
Loading historical data...
Loading historical data...
Loading historical data...
Loading historical data...

Documentation

Showing up to 5 results
|